Flag for Spain Weather past 2 weeks in Oviedo, Spain

Now
66 °F

Drizzle. Overcast.


Feels Like: 66 °F
Forecast: 61 / 66 °F
Wind: 2 mph from West

Location: Oviedo

Current Time: Aug 31, 2015 at 3:31:43 AM

Latest Report: Aug 31, 2015 at 2:00 AM


Visibility: 6 mi

Pressure: 29.92 "Hg

Humidity: 100%

Dew point: 66 °F

Location of OviedoLocation

Historic Weather in Oviedo — Graph

°F

Oviedo temperature yesterday

Maximum temperature yesterday: 89 °F (at 4:00 PM)
Minimum temperature yesterday: 63 °F (at 8:00 AM)
Average temperature yesterday: 71 °F

Past Weeks' High & Low Weather Summary

 TemperatureHumidityPressure
High89 °F (Aug 30, 4:00 PM)100% (Aug 21, 9:00 AM)30.18 "Hg (Aug 21, 9:00 AM)
Low55 °F (Aug 23, 5:00 AM)35% (Aug 27, 7:00 PM)29.59 "Hg (Aug 23, 7:00 PM)
Average66 °F80%29.98 "Hg
* Reported Aug 16 2:00 AM — Aug 31 2:00 AM, Oviedo, Weather by CustomWeather, © 2015

Note: Actual official high and low records may vary slightly from our data, if they occured in-between our weather recording intervals... More about our weather records

Advertising

Oviedo weather history for previous 24 hours

 ConditionsComfort  
Time TempWeatherWind HumidityBarometerVisibility
2:00 AM
Mon, Aug 31
66 °FDrizzle. Overcast.2 mph100%29.92 "Hg6 mi
1:00 AM66 °FLight rain. Overcast.5 mph100%29.94 "Hg0 mi
12:00 AM68 °FMild.2 mph97%29.91 "Hg6 mi
11:00 PM
Sun, Aug 30
68 °FPassing clouds.1 mph96%29.91 "Hg6 mi
10:00 PM68 °FMild.1 mph95%29.93 "Hg9 mi
9:00 PM68 °FMild.7 mph98%29.90 "Hg7 mi
8:00 PM74 °FThunderstorms. Overcast.5 mph74%29.86 "Hg7 mi
7:00 PM81 °FWarm.3 mph65%29.82 "Hg12 mi
6:00 PM80 °FWarm.7 mph67%29.82 "Hg12 mi
5:00 PM85 °FPassing clouds.7 mph60%29.81 "Hg12 mi
4:00 PM89 °FHot.3 mph43%29.82 "Hg12 mi
3:00 PM82 °FWarm.1 mph65%29.84 "Hg11 mi
2:00 PM80 °FOvercast.1 mph73%29.87 "Hg12 mi
1:00 PM81 °FWarm.5 mph62%29.88 "Hg12 mi
11:00 AM66 °FSprinkles. Overcast.7 mph94%29.96 "Hg6 mi
10:00 AM64 °FMild.5 mph100%29.95 "Hg0 mi
9:00 AM63 °FMild.2 mph100%29.93 "Hg0 mi
8:00 AM63 °FDense fog.2 mph100%29.93 "Hg0 mi
7:00 AM63 °FMild.1 mph100%29.93 "Hg0 mi
6:00 AM63 °FMild.2 mph100%29.95 "Hg0 mi
5:00 AM64 °FMild.1 mph98%29.96 "Hg1 mi
4:00 AM64 °FMild.2 mph98%29.96 "Hg2 mi
3:00 AM65 °FMild.1 mph97%29.98 "Hg1 mi
Weather by CustomWeather, © 2015

See weather overviewHow to use our weather pages